Weather History for Fullerton, CA

Change the Weather History Date:

Monday, November 28, 2011

  Actual Average Record
Temperature  
Mean Temperature 66 °F 58 °F  
Max Temperature 81 °F 69 °F 82 °F (2002)
Min Temperature 51 °F 47 °F 39 °F (2004)
Degree Days  
Heating Degree Days 0 7  
Month to date heating degree days 118 125  
Since 1 July heating degree days 127 149  
Cooling Degree Days 1 0  
Month to date cooling degree days 13 19  
Year to date cooling degree days 1178 1250  
Growing Degree Days 16 (Base 50)    
Moisture  
Dew Point 37 °F    
Average Humidity 38    
Maximum Humidity 59    
Minimum Humidity 16    
Precipitation  
Precipitation 0.00 in 0.04 in 0.01 in (2004)
Month to date precipitation 1.20 1.03  
Year to date precipitation 7.53 11.76  
Since 1 July precipitation 1.96 2.11  
Snow  
Snow 0.00 in - - ()
Month to date snowfall 0.0  
Year to date snowfall 0.0  
Since 1 July snowfall 0.0  
Snow Depth 0.00 in    
Sea Level Pressure  
Sea Level Pressure 30.09 in    
Wind  
Wind Speed 1 mph (ESE)    
Max Wind Speed 8 mph    
Max Gust Speed 23 mph    
Visibility 10 miles    
Events      
T = Trace of Precipitation, MM = Missing Value Source: NWS Daily Summary

Daily Weather History Graph

Daily Weather History Graph

Search for Another Location

Airport:

Trip Planner

Search our weather history database for the weather conditions in past years. The results will help you decide how hot, cold, wet, or windy it might be!

Date:

Astronomy

Nov. 28, 2011 Rise Set
Actual Time 6:36 AM PST 4:43 PM PST
Civil Twilight 6:08 AM PST 5:10 PM PST
Nautical Twilight 5:38 AM PST 5:41 PM PST
Astronomical Twilight 5:08 AM PST 6:11 PM PST
Moon 9:50 AM PST 8:32 PM PST
Length of Visible Light 11h 01m
Length of Day
10h 07m
Waxing Crescent, 16% of the Moon is Illuminated
Nov 28
Waxing Crescent
Dec 2
First Quarter
Dec 10
Full
Dec 17
Last Quarter
Dec 24
New

Hourly Weather History & Observations

Time (PST) Temp. Dew Point Humidity Pressure Visibility Wind Dir Wind Speed Gust Speed Precip Events Conditions
12:53 AM 57.0 °F 33.1 °F 40% 30.12 in 10.0 mi East 3.5 mph - N/A   Clear
1:53 AM 54.0 °F 34.0 °F 47% 30.13 in 10.0 mi Calm Calm - N/A   Clear
2:53 AM 54.0 °F 35.1 °F 49% 30.12 in 10.0 mi Calm Calm - N/A   Clear
3:53 AM 54.0 °F 33.1 °F 45% 30.11 in 10.0 mi Calm Calm - N/A   Clear
4:53 AM 52.0 °F 37.0 °F 57% 30.10 in 10.0 mi Calm Calm - N/A   Clear
5:53 AM 52.0 °F 36.0 °F 54% 30.10 in 10.0 mi Calm Calm - N/A   Clear
6:53 AM 53.1 °F 37.0 °F 55% 30.10 in 10.0 mi Calm Calm - N/A   Clear
7:53 AM 55.9 °F 37.9 °F 51% 30.12 in 10.0 mi Calm Calm - N/A   Clear
8:53 AM 66.9 °F 32.0 °F 27% 30.12 in 10.0 mi Variable 3.5 mph - N/A   Clear
9:53 AM 73.0 °F 30.9 °F 21% 30.13 in 10.0 mi ENE 3.5 mph - N/A   Clear
10:53 AM 77.0 °F 32.0 °F 19% 30.12 in 10.0 mi Calm Calm - N/A   Clear
11:53 AM 79.0 °F 32.0 °F 18% 30.09 in 10.0 mi Calm Calm - N/A   Clear
12:53 PM 80.1 °F 30.9 °F 17% 30.06 in 10.0 mi Calm Calm - N/A   Clear
2:53 PM 78.1 °F 37.0 °F 23% 30.04 in 10.0 mi SSW 4.6 mph - N/A   Clear
3:53 PM 73.9 °F 39.9 °F 29% 30.05 in 10.0 mi Variable 3.5 mph - N/A   Clear
4:53 PM 69.1 °F 41.0 °F 36% 30.05 in 10.0 mi Calm Calm - N/A   Clear
5:53 PM 64.9 °F 44.1 °F 47% 30.05 in 10.0 mi Calm Calm - N/A   Clear
6:53 PM 61.0 °F 44.1 °F 54% 30.06 in 10.0 mi Calm Calm - N/A   Clear
7:53 PM 60.1 °F 44.1 °F 55% 30.06 in 10.0 mi Calm Calm - N/A   Clear
8:53 PM 59.0 °F 44.1 °F 58% 30.06 in 10.0 mi Calm Calm - N/A   Clear
9:53 PM 59.0 °F 43.0 °F 55% 30.07 in 10.0 mi Calm Calm - N/A   Clear
11:53 PM 55.0 °F 45.0 °F 69% 30.07 in 10.0 mi Calm Calm - N/A   Clear